Location: Staunton
(38.1490°N, 79.0720°W)
Time: 21:07:15
(UTC-05:00)

ISS - Visible Passes

Search period start: 22 January 2018 00:00
Search period end: 01 February 2018 00:00
Orbit: 402 x 407 km, 51.6° (Epoch: 23 January)

Date Brightness Start Highest point End Pass type
(mag) Time Alt. Az. Time Alt. Az. Time Alt. Az.
22 Jan -1.4 19:20:00 10° SSW 19:20:48 15° S 19:20:48 15° S visible
23 Jan -1.8 18:28:59 10° SSE 18:30:42 14° SE 18:31:12 13° ESE visible
23 Jan -0.4 20:03:39 10° WSW 20:03:53 12° WSW 20:03:53 12° WSW visible
24 Jan -3.7 19:11:19 10° SW 19:14:11 65° SSW 19:14:11 65° SSW visible
25 Jan -3.0 18:19:20 10° SSW 18:22:19 34° SE 18:24:24 17° ENE visible
25 Jan -0.8 19:56:05 10° W 19:57:05 16° WNW 19:57:05 16° WNW visible
26 Jan -2.9 19:03:17 10° WSW 19:06:24 42° NW 19:07:12 34° N visible
27 Jan -3.8 18:10:48 10° SW 18:14:03 84° NW 18:17:14 11° NE visible
27 Jan -0.9 19:48:58 10° WNW 19:49:54 13° NW 19:49:54 13° NW visible
28 Jan -1.8 18:55:47 10° W 18:58:22 21° NNW 18:59:51 16° N visible
29 Jan -2.5 18:02:51 10° W 18:05:52 34° NNW 18:08:54 10° NE visible
30 Jan -1.2 18:48:44 10° NW 18:50:25 13° NNW 18:52:07 10° NNE visible
